Regional Weather Roundup
Issued by NWS

Home | Current Version | Previous Version | Graphics & Text | Print | Product List | Glossary On
Versions: 1 2 3 4 5 6 7 8 9 10 11 12 13 14 15 16 17 18 19 20 21 22 23 24 25 26 27 28 29 30 31 32 33 34 35 36 37 38 39 40 41 42 43 44 45 46 47 48 49 50
000
ASUS43 KOAX 271810
RWRNE

WEATHER ROUNDUP FOR NEBRASKA
NATIONAL WEATHER SERVICE OMAHA NE
100 PM CDT FRI MAR 27 2015

NOTES: SATELLITE DATA IS BEING USED TO AUGMENT CLOUD COVER ABOVE
       12000 FEET.
       "FAIR" INDICATES FEW OR NO CLOUDS BELOW 12,000 FEET WITH NO
       SIGNIFICANT WEATHER AND/OR OBSTRUCTIONS TO VISIBILITY.

  * THESE STATIONS DO NOT REPORT WEATHER SUCH AS RAIN...SNOW OR FOG.

NEZ001>004-019>022-054>056-271900-
NEBRASKA PANHANDLE

CITY           SKY/WX    TMP DP  RH WIND       PRES   REMARKS
SCOTTSBLUFF    PTSUNNY   64  39  39 NW21      30.08F
6HR MIN TEMP:  37; 6HR MAX TEMP:  64; 6HR PCP: TRACE;

ALLIANCE       MOSUNNY   64  35  34 NW26G32   30.04F
6HR MIN TEMP:  36; 6HR MAX TEMP:  64; 6HR PCP: TRACE;

CHADRON        MOSUNNY   62  39  42 NW23G29   30.03F
6HR MIN TEMP:  41; 6HR MAX TEMP:  63; 6HR PCP: TRACE;

KIMBALL        MOSUNNY   61  32  33 NW18G24   30.10F
SIDNEY         PTSUNNY   60  37  42 NW23      30.10F
6HR MIN TEMP:  35; 6HR MAX TEMP:  62; 6HR PCP:  0.01;

$$

NEZ057>060-069>072-079>082-271900-
SOUTHWEST NEBRASKA

CITY           SKY/WX    TMP DP  RH WIND       PRES   REMARKS
NORTH PLATTE   CLOUDY    43  34  70 SW16G22   30.12F
6HR MIN TEMP:  31; 6HR MAX TEMP:  43; 6HR PCP: TRACE;

IMPERIAL         N/A     53  35  50 SW13      30.11F
6HR MIN TEMP:  32; 6HR MAX TEMP:  53;

LEXINGTON      CLOUDY    42  29  60 S10G18    30.15F
MCCOOK         CLOUDY    44  32  62 S13       30.16F
6HR MIN TEMP:  32; 6HR MAX TEMP:  44;

OGALLALA       MOSUNNY   56  41  56 W14       30.07F
$$

NEZ005>010-023>029-035>040-094-271900-
NORTH CENTRAL NEBRASKA

CITY           SKY/WX    TMP DP  RH WIND       PRES   REMARKS
VALENTINE      CLOUDY    46  32  58 S14       30.02F
6HR MIN TEMP:  33; 6HR MAX TEMP:  48; 6HR PCP: TRACE;

AINSWORTH      CLOUDY    42  31  67 S15G21    30.06F
BROKEN BOW     CLOUDY    40  28  62 S20G28    30.12F WCI  30
6HR MIN TEMP:  31; 6HR MAX TEMP:  40;

O`NEILL        LGT SNOW  34  29  83 S10       30.15F WCI  26
ORD            CLOUDY    34  24  67 S10       30.16F WCI  26
6HR MIN TEMP:  23; 6HR MAX TEMP:  35; 6HR PCP: TRACE;

THEDFORD       CLOUDY    45  35  68 SW15G24   30.07F
$$

NEZ041-046>049-061>064-073>077-083>087-271900-
SOUTH CENTRAL NEBRASKA

CITY           SKY/WX    TMP DP  RH WIND       PRES   REMARKS
GRAND ISLAND   CLOUDY    37  23  56 S7        30.21F WCI  32
6HR MIN TEMP:  20; 6HR MAX TEMP:  37;

AURORA         CLOUDY    36  22  58 CALM      30.21F
HASTINGS       CLOUDY    37  22  54 S6        30.20F WCI  32
6HR MIN TEMP:  24; 6HR MAX TEMP:  37;

HEBRON         CLOUDY    38  20  48 CALM      30.25F
HOLDREGE       CLOUDY    38  24  57 S9        30.18F WCI  31
KEARNEY *      CLOUDY    37  23  56 S10       30.19F WCI  30
YORK           PTSUNNY   36  23  60 S7        30.23F WCI  30
$$

NEZ011>018-030>034-042>045-271900-
NORTHEAST NEBRASKA

CITY           SKY/WX    TMP DP  RH WIND       PRES   REMARKS
NORFOLK        CLOUDY    33  20  58 SE6       30.20F WCI  28
6HR MIN TEMP:  18; 6HR MAX TEMP:  33;

ALBION         CLOUDY    35  23  62 S7        30.20F WCI  29
BLAIR          MOSUNNY   36  16  44 SW6       30.23F WCI  31
COLUMBUS *     CLOUDY    34  18  51 SE3       30.24F
FREMONT        PTSUNNY   36  20  52 CALM      30.25F
TEKAMAH        MOSUNNY   36  13  38 CALM      30.25F
6HR MIN TEMP:  17; 6HR MAX TEMP:  37;

WAYNE          PTSUNNY   33  18  52 CALM      30.22F
$$

NEZ050>053-065>068-078-088>093-271900-
SOUTHEAST NEBRASKA

CITY           SKY/WX    TMP DP  RH WIND       PRES   REMARKS
LINCOLN        PTSUNNY   36  21  54 SE5       30.26F WCI  32
6HR MIN TEMP:  21; 6HR MAX TEMP:  37;

OMAHA EPPLEY   CLOUDY    37  16  42 CALM      30.26F
6HR MIN TEMP:  22; 6HR MAX TEMP:  38;

BEATRICE       PTSUNNY   36  21  54 NE8       30.25F WCI  30
FALLS CITY     SUNNY     38  21  50 VRB7      30.28F WCI  33
6HR MIN TEMP:  26; 6HR MAX TEMP:  38;

NEBRASKA CITY  MOSUNNY   36  16  44 NW3       30.27F
PLATTSMOUTH    SUNNY     34  13  42 S6        30.26F WCI  29
$$

NEZ044-045-051>053-067-271900-
OMAHA AREA

CITY           SKY/WX    TMP DP  RH WIND       PRES   REMARKS
OMAHA EPPLEY   CLOUDY    37  16  42 CALM      30.26F
6HR MIN TEMP:  22; 6HR MAX TEMP:  38;

BLAIR          MOSUNNY   36  16  44 SW6       30.23F WCI  31
FREMONT        PTSUNNY   36  20  52 CALM      30.25F
MILLARD        MOSUNNY   35  12  38 NW3       30.26F
OFFUTT AFB     MOSUNNY   36  15  42 VRB3      30.26F
PLATTSMOUTH    SUNNY     34  13  42 S6        30.26F WCI  29
WAHOO          FAIR      35  19  50 CALM      30.24F
$$



USA.gov is the U.S. government's official web portal to all federal, state and local government web resources and services.